GW6964 Weather Reports


time (UTC)temp
C
wind
direction
speed
KPH
gust
KPH
rain 1hr
cm
rain 24hr
cm
rain mn
cm
humidity
%
barometer
mb
20260906182552 36 199 4.8 6.4 0.00 0.00 0.00 37 1014.2
20260906182048 36 225 8.0 12.9 0.00 0.00 0.00 36 1014.1
20260906181543 37 201 4.8 6.4 0.00 0.00 0.00 36 1014.2
20260906181039 38 172 4.8 6.4 0.00 0.00 0.00 35 1014.3
20260906180534 40 260 4.8 6.4 0.00 0.00 0.00 33 1014.2
20260906180033 40 224 4.8 6.4 0.00 0.00 0.00 32 1014.4
20260906175532 40 142 1.6 4.8 0.00 0.00 0.00 32 1014.5
20260906175032 40 85 9.7 14.5 0.00 0.00 0.00 32 1014.6
20260906174530 40 346 3.2 6.4 0.00 0.00 0.00 33 1014.8
20260906174025 39 200 3.2 6.4 0.00 0.00 0.00 33 1014.8
20260906173521 39 276 3.2 11.3 0.00 0.00 0.00 34 1015.0
20260906173017 38 53 6.4 14.5 0.00 0.00 0.00 34 1015.1
20260906172517 38 172 3.2 3.2 0.00 0.00 0.00 35 1015.1
20260906172012 38 144 3.2 6.4 0.00 0.00 0.00 34 1015.3
20260906171507 38 96 6.4 9.7 0.00 0.00 0.00 35 1015.6
20260906171002 38 93 6.4 6.4 0.00 0.00 0.00 35 1015.5
20260906170458 38 100 3.2 9.7 0.00 0.00 0.00 34 1015.6
20260906165955 38 81 6.4 9.7 0.00 0.00 0.00 36 1015.8
20260906165454 38 99 3.2 6.4 0.00 0.00 0.00 35 1015.5
20260906164949 37 120 3.2 4.8 0.00 0.00 0.00 36 1015.6
20260906164448 38 89 3.2 6.4 0.00 0.00 0.00 36 1015.6
20260906163945 37 102 3.2 3.2 0.00 0.00 0.00 38 1015.8
20260906163440 37 28 4.8 6.4 0.00 0.00 0.00 39 1015.8
20260906162938 37 104 3.2 4.8 0.00 0.00 0.00 40 1015.9
20260906162436 37 124 3.2 6.4 0.00 0.00 0.00 40 1015.9
20260906161932 37 324 6.4 11.3 0.00 0.00 0.00 40 1015.8
20260906161432 37 120 3.2 4.8 0.00 0.00 0.00 41 1015.9
20260906160931 36 130 0.0 1.6 0.00 0.00 0.00 41 1016.1
20260906160424 36 243 6.4 9.7 0.00 0.00 0.00 41 1015.9
20260906155923 36 103 3.2 3.2 0.00 0.00 0.00 40 1016.0
20260906155422 36 116 3.2 3.2 0.00 0.00 0.00 41 1016.1
20260906154919 36 21 6.4 9.7 0.00 0.00 0.00 42 1016.0
20260906154418 35 115 1.6 4.8 0.00 0.00 0.00 43 1015.9
20260906153917 35 107 0.0 3.2 0.00 0.00 0.00 43 1016.0
20260906153416 35 207 3.2 4.8 0.00 0.00 0.00 43 1015.9
20260906152912 35 262 4.8 6.4 0.00 0.00 0.00 43 1015.8
20260906152406 35 246 4.8 6.4 0.00 0.00 0.00 43 1015.8
20260906151906 35 127 1.6 6.4 0.00 0.00 0.00 44 1015.9
20260906151401 35 262 8.0 9.7 0.00 0.00 0.00 43 1015.9
20260906150857 34 182 1.6 6.4 0.00 0.00 0.00 45 1015.9
20260906150352 33 163 3.2 9.7 0.00 0.00 0.00 46 1015.8
20260906145851 33 137 1.6 3.2 0.00 0.00 0.00 48 1015.8
20260906145350 33 146 1.6 4.8 0.00 0.00 0.00 48 1016.0
20260906144845 33 218 3.2 6.4 0.00 0.00 0.00 49 1015.8
20260906144340 32 166 3.2 9.7 0.00 0.00 0.00 50 1015.8
20260906143840 32 222 3.2 6.4 0.00 0.00 0.00 52 1015.9
20260906143336 32 181 6.4 9.7 0.00 0.00 0.00 51 1015.8
20260906142832 32 141 1.6 3.2 0.00 0.00 0.00 54 1015.6
20260906142327 31 152 1.6 3.2 0.00 0.00 0.00 54 1015.9
20260906141826 31 224 3.2 9.7 0.00 0.00 0.00 55 1015.9
20260906141321 31 191 3.2 3.2 0.00 0.00 0.00 56 1015.9
20260906140819 30 201 3.2 3.2 0.00 0.00 0.00 58 1015.8
20260906140315 30 195 4.8 4.8 0.00 0.00 0.00 57 1015.8
20260906135812 30 198 3.2 4.8 0.00 0.00 0.00 59 1015.8
20260906135307 30 149 1.6 3.2 0.00 0.00 0.00 60 1015.6
20260906134803 30 157 3.2 4.8 0.00 0.00 0.00 60 1015.6
20260906134258 30 164 3.2 3.2 0.00 0.00 0.00 61 1015.5
20260906133754 30 163 3.2 3.2 0.00 0.00 0.00 61 1015.6
20260906133249 29 169 1.6 3.2 0.00 0.00 0.00 62 1015.5
20260906132744 29 154 1.6 1.6 0.00 0.00 0.00 62 1015.5
20260906132239 28 148 0.0 0.0 0.00 0.00 0.00 65 1015.2
20260906131735 27 148 0.0 0.0 0.00 0.00 0.00 68 1015.4
20260906131230 26 148 0.0 0.0 0.00 0.00 0.00 70 1015.2
20260906130726 26 148 0.0 0.0 0.00 0.00 0.00 74 1015.2
20260906130220 25 149 0.0 0.0 0.00 0.00 0.00 83 1015.2
20260906125719 23 149 0.0 0.0 0.00 0.00 0.00 87 1015.2
20260906125217 22 149 0.0 0.0 0.00 0.00 0.00 90 1015.0
20260906124712 21 149 0.0 0.0 0.00 0.00 0.00 91 1015.0
20260906124208 21 150 0.0 0.0 0.00 0.00 0.00 91 1015.1
20260906123706 21 150 0.0 0.0 0.00 0.00 0.00 91 1015.0
20260906123202 21 150 0.0 0.0 0.00 0.00 0.00 91 1014.8
20260906122701 20 150 0.0 0.0 0.00 0.00 0.00 91 1014.9
20260906122157 20 150 0.0 0.0 0.00 0.00 0.00 91 1014.8
20260906121653 20 150 0.0 0.0 0.00 0.00 0.00 91 1014.9
20260906121149 20 149 0.0 0.0 0.00 0.00 0.00 91 1014.8
20260906120645 20 148 0.0 0.0 0.00 0.00 0.00 91 1014.8
20260906120142 20 149 0.0 0.0 0.00 0.00 0.00 91 1014.9
20260906115642 20 149 0.0 0.0 0.00 0.00 0.00 91 1014.8
20260906115138 20 149 0.0 0.0 0.00 0.00 0.00 91 1014.9
20260906114636 20 149 0.0 0.0 0.00 0.00 0.00 91 1014.9
20260906114131 20 149 0.0 0.0 0.00 0.00 0.00 90 1014.7
20260906113631 20 149 0.0 0.0 0.00 0.00 0.00 90 1014.6
20260906113126 20 149 0.0 0.0 0.00 0.00 0.00 90 1014.6
20260906112626 20 149 0.0 0.0 0.00 0.00 0.00 90 1014.5
20260906112123 20 149 0.0 0.0 0.00 0.00 0.00 90 1014.5
20260906111622 20 149 0.0 0.0 0.00 0.00 0.00 90 1014.5
20260906111117 20 149 0.0 0.0 0.00 0.00 0.00 90 1014.6
20260906110612 20 149 0.0 0.0 0.00 0.00 0.00 89 1014.4
20260906110112 20 149 0.0 0.0 0.00 0.00 0.00 89 1014.7
20260906105606 20 149 0.0 0.0 0.00 0.00 0.00 89 1014.5
20260906105102 20 149 0.0 0.0 0.00 0.00 0.00 89 1014.3
20260906104601 20 149 0.0 0.0 0.00 0.00 0.00 89 1014.5
20260906104055 20 149 0.0 0.0 0.00 0.00 0.00 89 1014.4
20260906103554 20 149 0.0 0.0 0.00 0.00 0.00 89 1014.3
20260906103049 20 149 0.0 0.0 0.00 0.00 0.00 89 1014.4
20260906102549 21 155 0.0 0.0 0.00 0.00 0.00 88 1014.2
20260906102045 21 155 0.0 0.0 0.00 0.00 0.00 88 1014.3
20260906101544 21 155 0.0 0.0 0.00 0.00 0.00 88 1014.2
20260906101039 21 155 0.0 0.0 0.00 0.00 0.00 88 1014.2
20260906100535 21 155 0.0 0.0 0.00 0.00 0.00 88 1014.3
20260906100035 21 155 0.0 0.0 0.00 0.00 0.00 88 1014.4
20260906095530 21 155 0.0 0.0 0.00 0.00 0.00 87 1014.2
20260906095026 21 155 0.0 0.0 0.00 0.00 0.00 87 1014.2
20260906094524 21 155 0.0 0.0 0.00 0.00 0.00 87 1014.0
20260906094020 21 155 0.0 0.0 0.00 0.00 0.00 87 1014.1
20260906093516 21 155 0.0 0.0 0.00 0.00 0.00 87 1014.0
20260906093016 21 155 0.0 0.0 0.00 0.00 0.00 87 1013.8
20260906092516 21 155 0.0 0.0 0.00 0.00 0.00 87 1013.8
20260906092012 21 155 0.0 0.0 0.00 0.00 0.00 87 1013.9
20260906091507 21 155 0.0 0.0 0.00 0.00 0.00 87 1013.7
20260906091005 21 155 0.0 0.0 0.00 0.00 0.00 86 1013.8
20260906090505 21 155 0.0 0.0 0.00 0.00 0.00 86 1013.9
20260906090005 21 155 0.0 0.0 0.00 0.00 0.00 86 1013.9
20260906085504 21 155 0.0 0.0 0.00 0.00 0.00 86 1013.9
20260906085003 21 155 0.0 0.0 0.00 0.00 0.00 86 1013.8
20260906084458 21 155 0.0 0.0 0.00 0.00 0.00 86 1013.8
20260906083957 21 155 0.0 0.0 0.00 0.00 0.00 86 1013.7
20260906083453 21 155 0.0 0.0 0.00 0.00 0.00 86 1013.7
20260906082952 21 155 0.0 0.0 0.00 0.00 0.00 86 1013.7
20260906082448 21 155 0.0 0.0 0.00 0.00 0.00 86 1013.5
20260906081943 21 155 0.0 0.0 0.00 0.00 0.00 85 1013.7
20260906081444 21 155 0.0 0.0 0.00 0.00 0.00 85 1013.5
20260906080940 22 155 0.0 0.0 0.00 0.00 0.00 85 1013.6
20260906080436 22 155 0.0 0.0 0.00 0.00 0.00 85 1013.5
20260906075937 22 155 0.0 0.0 0.00 0.00 0.00 84 1013.8
20260906075432 22 155 0.0 0.0 0.00 0.00 0.00 84 1013.5
20260906074927 22 155 0.0 0.0 0.00 0.00 0.00 84 1013.6
20260906074427 22 155 0.0 0.0 0.00 0.00 0.00 83 1013.6
20260906073925 22 155 0.0 0.0 0.00 0.00 0.00 83 1013.8
20260906073420 22 155 0.0 0.0 0.00 0.00 0.00 83 1013.6
20260906072917 22 155 0.0 0.0 0.00 0.00 0.00 82 1013.8
20260906072412 22 155 0.0 0.0 0.00 0.00 0.00 82 1013.7
20260906071908 22 155 0.0 0.0 0.00 0.00 0.00 82 1014.0
20260906071403 22 155 0.0 0.0 0.00 0.00 0.00 82 1013.8
20260906070859 22 155 0.0 0.0 0.00 0.00 0.00 81 1013.9
20260906070355 22 155 0.0 0.0 0.00 0.00 0.00 81 1014.0
20260906065850 23 155 0.0 0.0 0.00 0.00 0.00 80 1013.9
20260906065344 23 155 0.0 0.0 0.00 0.00 0.00 79 1014.0
20260906064840 23 155 0.0 0.0 0.00 0.00 0.00 79 1013.9
20260906064337 23 155 0.0 0.0 0.00 0.00 0.00 78 1013.8
20260906063836 23 155 0.0 0.0 0.00 0.00 0.00 77 1014.0
20260906063332 23 155 0.0 0.0 0.00 0.00 0.00 76 1014.1
20260906062827 24 155 0.0 0.0 0.00 0.00 0.00 76 1014.0
20260906062326 24 155 0.0 0.0 0.00 0.00 0.00 76 1013.9
20260906061822 25 155 0.0 0.0 0.00 0.00 0.00 75 1014.0
20260906061318 25 155 0.0 1.6 0.00 0.00 0.00 75 1014.1
20260906060812 25 155 0.0 0.0 0.00 0.00 0.00 74 1014.1
20260906060310 25 155 0.0 1.6 0.00 0.00 0.00 74 1014.3
20260906055806 25 158 0.0 3.2 0.00 0.00 0.00 73 1014.3
20260906055301 25 149 1.6 1.6 0.00 0.00 0.00 74 1014.4
20260906054756 25 148 1.6 1.6 0.00 0.00 0.00 74 1014.2
20260906054252 24 150 0.0 1.6 0.00 0.00 0.00 75 1014.2
20260906053748 23 112 0.0 0.0 0.00 0.00 0.00 78 1014.3
20260906053244 23 112 0.0 0.0 0.00 0.00 0.00 78 1014.0
20260906052738 23 112 0.0 0.0 0.00 0.00 0.00 78 1014.3
20260906052235 24 112 0.0 0.0 0.00 0.00 0.00 78 1014.2
20260906051731 24 112 0.0 0.0 0.00 0.00 0.00 78 1014.0
20260906051231 24 112 0.0 0.0 0.00 0.00 0.00 77 1014.1
20260906050726 24 112 0.0 0.0 0.00 0.00 0.00 76 1014.1
20260906050221 24 112 0.0 0.0 0.00 0.00 0.00 76 1014.0
20260906045719 24 112 0.0 0.0 0.00 0.00 0.00 76 1014.0
20260906045215 25 112 0.0 0.0 0.00 0.00 0.00 76 1013.9
20260906044711 25 112 0.0 0.0 0.00 0.00 0.00 75 1013.8
20260906044206 25 112 0.0 0.0 0.00 0.00 0.00 75 1014.0
20260906043702 25 112 0.0 0.0 0.00 0.00 0.00 75 1014.3
20260906043158 25 112 0.0 0.0 0.00 0.00 0.00 75 1014.1
20260906042657 25 112 3.2 3.2 0.00 0.00 0.00 76 1013.9
20260906042157 25 112 0.0 0.0 0.00 0.00 0.00 75 1014.1
20260906041653 25 111 0.0 0.0 0.00 0.00 0.00 75 1013.9
20260906041147 25 111 0.0 0.0 0.00 0.00 0.00 75 1014.1
20260906040643 25 111 0.0 0.0 0.00 0.00 0.00 74 1014.0
20260906040138 25 111 0.0 0.0 0.00 0.00 0.00 74 1013.9
20260906035633 25 111 0.0 0.0 0.00 0.00 0.00 74 1014.0
20260906035129 25 111 0.0 0.0 0.00 0.00 0.00 74 1014.1
20260906034630 25 111 0.0 0.0 0.00 0.00 0.00 74 1014.1
20260906034129 25 111 0.0 0.0 0.00 0.00 0.00 74 1013.9
20260906033625 25 111 0.0 0.0 0.00 0.00 0.00 74 1013.7
20260906033120 25 111 0.0 0.0 0.00 0.00 0.00 74 1013.7
20260906032617 25 112 0.0 0.0 0.00 0.00 0.00 74 1013.8
20260906032116 25 111 0.0 0.0 0.00 0.00 0.00 73 1013.7
20260906031612 25 111 0.0 0.0 0.00 0.00 0.00 74 1013.8
20260906031107 25 111 0.0 0.0 0.00 0.00 0.00 73 1013.7
20260906030606 25 111 0.0 0.0 0.00 0.00 0.00 73 1013.7
20260906025601 25 111 0.0 0.0 0.00 0.00 0.00 72 1013.4
20260906025100 25 111 0.0 0.0 0.00 0.00 0.00 72 1013.6
20260906024555 25 111 0.0 1.6 0.00 0.00 0.00 71 1013.5
20260906024055 25 111 0.0 1.6 0.00 0.00 0.00 71 1013.4
20260906023552 25 112 0.0 0.0 0.00 0.00 0.00 71 1013.5
20260906023051 26 112 0.0 0.0 0.00 0.00 0.00 69 1013.3
20260906022547 26 112 0.0 0.0 0.00 0.00 0.00 68 1013.5
20260906022042 26 112 0.0 0.0 0.00 0.00 0.00 68 1013.3
20260906021538 26 112 0.0 0.0 0.00 0.00 0.00 68 1013.1
20260906021037 26 112 0.0 0.0 0.00 0.00 0.00 68 1012.9
20260906020537 26 112 0.0 0.0 0.00 0.00 0.00 67 1012.9
20260906020036 26 112 0.0 0.0 0.00 0.00 0.00 66 1012.9
20260906015535 27 112 0.0 0.0 0.00 0.00 0.00 66 1013.0
20260906015029 27 112 0.0 0.0 0.00 0.00 0.00 65 1013.0
20260906014524 27 112 0.0 0.0 0.00 0.00 0.00 64 1012.8
20260906014020 27 112 0.0 0.0 0.00 0.00 0.00 63 1012.7
20260906013515 27 112 0.0 0.0 0.00 0.00 0.00 62 1012.9
20260906013011 27 112 0.0 0.0 0.00 0.00 0.00 61 1012.7
20260906012506 28 112 0.0 0.0 0.00 0.00 0.00 60 1012.8
20260906012005 28 111 0.0 0.0 0.00 0.00 0.00 59 1012.6
20260906011501 28 111 0.0 0.0 0.00 0.00 0.00 58 1012.7
20260906010956 29 111 0.0 0.0 0.00 0.00 0.00 57 1012.6
20260906010452 30 111 0.0 0.0 0.00 0.00 0.00 55 1012.4
20260906005948 30 111 0.0 0.0 0.00 0.00 0.00 54 1012.4
20260906005447 31 111 0.0 0.0 0.00 0.00 0.00 52 1012.4
20260906004946 31 111 0.0 0.0 0.00 0.00 0.00 50 1012.3
20260906004445 32 111 0.0 0.0 0.00 0.00 0.00 49 1012.1
20260906003941 33 111 0.0 0.0 0.00 0.00 0.00 47 1012.3
20260906003436 33 111 0.0 0.0 0.00 0.00 0.00 45 1012.4
20260906002931 35 107 0.0 0.0 0.00 0.00 0.00 43 1012.4
20260906002431 35 105 0.0 0.0 0.00 0.00 0.00 42 1012.4
20260906001926 35 105 0.0 0.0 0.00 0.00 0.00 41 1012.4
20260906001421 36 104 0.0 0.0 0.00 0.00 0.00 39 1012.4
20260906000917 36 125 1.6 1.6 0.00 0.00 0.00 38 1012.4
20260906000412 37 125 1.6 1.6 0.00 0.00 0.00 36 1012.6
20260905235907 37 125 0.0 0.0 0.00 0.00 0.00 36 1012.3
20260905235401 37 97 0.0 0.0 0.00 0.00 0.00 36 1012.3
20260905234856 37 96 1.6 3.2 0.00 0.00 0.00 35 1012.7
20260905234352 37 112 1.6 3.2 0.00 0.00 0.00 35 1012.3
20260905233847 37 84 6.4 6.4 0.00 0.00 0.00 33 1012.3
20260905233347 37 115 1.6 1.6 0.00 0.00 0.00 34 1012.2
20260905232846 37 116 1.6 4.8 0.00 0.00 0.00 35 1012.2
20260905232342 38 74 3.2 4.8 0.00 0.00 0.00 34 1012.3
20260905231833 38 97 1.6 3.2 0.00 0.00 0.00 34 1012.3
20260905231332 38 69 3.2 6.4 0.00 0.00 0.00 34 1012.3
20260905230829 38 110 3.2 4.8 0.00 0.00 0.00 34 1012.3
20260905230327 38 82 3.2 4.8 0.00 0.00 0.00 33 1012.3
20260905225826 38 95 3.2 3.2 0.00 0.00 0.00 33 1012.1
20260905225322 38 70 8.0 11.3 0.00 0.00 0.00 33 1012.3
20260905224821 38 83 6.4 9.7 0.00 0.00 0.00 33 1012.3
20260905224317 38 48 3.2 9.7 0.00 0.00 0.00 33 1012.2
20260905223812 38 76 3.2 6.4 0.00 0.00 0.00 33 1012.0
20260905223310 38 117 1.6 4.8 0.00 0.00 0.00 34 1012.2
20260905222805 38 345 3.2 4.8 0.00 0.00 0.00 34 1012.1
20260905222306 37 200 3.2 6.4 0.00 0.00 0.00 35 1012.2
20260905221800 37 70 4.8 9.7 0.00 0.00 0.00 35 1012.3
20260905221256 36 343 6.4 6.4 0.00 0.00 0.00 36 1012.3
20260905220752 36 100 0.0 1.6 0.00 0.00 0.00 37 1012.4
20260905220248 36 100 1.6 1.6 0.00 0.00 0.00 36 1012.4
20260905215747 36 100 0.0 0.0 0.00 0.00 0.00 36 1012.7
20260905215243 36 102 1.6 3.2 0.00 0.00 0.00 35 1012.6
20260905214738 36 120 0.0 1.6 0.00 0.00 0.00 36 1012.8
20260905214234 36 110 1.6 1.6 0.00 0.00 0.00 36 1012.9
20260905213729 37 108 0.0 3.2 0.00 0.00 0.00 36 1012.7
20260905213226 37 345 6.4 6.4 0.00 0.00 0.00 35 1012.8
20260905212720 38 313 6.4 11.3 0.00 0.00 0.00 34 1012.8
20260905212220 38 121 0.0 9.7 0.00 0.00 0.00 33 1013.0
20260905211719 38 121 1.6 6.4 0.00 0.00 0.00 34 1013.1
20260905211214 38 88 8.0 9.7 0.00 0.00 0.00 34 1013.1
20260905210712 38 126 4.8 9.7 0.00 0.00 0.00 34 1013.2
20260905210212 38 67 8.0 9.7 0.00 0.00 0.00 34 1013.1
20260905205710 38 105 6.4 9.7 0.00 0.00 0.00 34 1013.3
20260905205205 38 86 4.8 9.7 0.00 0.00 0.00 34 1013.4
20260905204704 39 84 3.2 4.8 0.00 0.00 0.00 34 1013.5
20260905204159 38 90 1.6 3.2 0.00 0.00 0.00 34 1013.4
20260905203654 38 175 3.2 9.7 0.00 0.00 0.00 34 1013.6
20260905203150 38 94 3.2 6.4 0.00 0.00 0.00 34 1013.8
20260905202645 38 336 6.4 6.4 0.00 0.00 0.00 35 1013.7
20260905202140 38 159 1.6 6.4 0.00 0.00 0.00 34 1013.9
20260905201636 38 192 1.6 6.4 0.00 0.00 0.00 34 1013.8
20260905201135 37 118 0.0 3.2 0.00 0.00 0.00 38 1013.9
20260905200631 37 55 3.2 3.2 0.00 0.00 0.00 37 1013.9
20260905200126 37 84 3.2 6.4 0.00 0.00 0.00 37 1014.2
20260905195625 37 142 1.6 3.2 0.00 0.00 0.00 36 1014.2
20260905195121 37 93 4.8 6.4 0.00 0.00 0.00 36 1014.1
20260905194620 37 109 3.2 4.8 0.00 0.00 0.00 37 1014.3
20260905194120 37 96 4.8 4.8 0.00 0.00 0.00 37 1014.2
20260905193615 37 62 4.8 6.4 0.00 0.00 0.00 38 1014.1
20260905193109 37 180 3.2 4.8 0.00 0.00 0.00 37 1014.4
20260905192605 38 66 4.8 6.4 0.00 0.00 0.00 37 1014.5
20260905192101 38 29 6.4 12.9 0.00 0.00 0.00 36 1014.5
20260905191559 38 165 3.2 4.8 0.00 0.00 0.00 36 1014.5
20260905191059 38 132 3.2 6.4 0.00 0.00 0.00 36 1014.8
20260905190557 37 112 0.0 3.2 0.00 0.00 0.00 36 1014.6
20260905190057 37 265 3.2 9.7 0.00 0.00 0.00 36 1014.8
20260905185556 38 328 8.0 16.1 0.00 0.00 0.00 36 1014.8
20260905185056 37 253 8.0 11.3 0.00 0.00 0.00 36 1014.9
20260905184550 37 224 3.2 11.3 0.00 0.00 0.00 38 1014.9
20260905184049 37 156 3.2 6.4 0.00 0.00 0.00 38 1015.2
20260905183543 36 81 1.6 4.8 0.00 0.00 0.00 38 1015.3
20260905183038 36 350 8.0 11.3 0.00 0.00 0.00 40 1015.4